Regional Weather Roundup
Issued by NWS Little Rock, AR

Home | Current Version | Previous Version | Graphics & Text | Print | Product List | Glossary On
Versions: 1 2 3 4 5 6 7 8 9 10 11 12 13 14 15 16 17 18 19 20 21 22 23 24 25 26 27
000
ASUS44 KLZK 290805
RWRLZK

WEATHER ROUNDUP FOR ARKANSAS
NATIONAL WEATHER SERVICE LITTLE ROCK AR
300 AM CDT SUN MAY 29 2016

NOTE: "FAIR" INDICATES FEW OR NO CLOUDS BELOW 12,000 FEET WITH NO
SIGNIFICANT WEATHER AND/OR OBSTRUCTIONS TO VISIBILITY.

ARZ001-003-010-029-290900-
NORTHWEST ARKANSAS

CITY           SKY/WX    TMP DP  RH WIND       PRES   REMARKS
FAYETTEVILLE   CLOUDY    63  63 100 CALM      30.10R
FORT SMITH     PTCLDY    69  65  86 NE3       30.05S
HARRISON       PTCLDY    66  64  93 NW3       30.09R
BENTONVILLE    MOCLDY    64  61  88 CALM      30.10R
ROGERS           N/A     66  65  96 S5        30.11R
SILOAM SPGS    PTCLDY    64  57  77 S5        30.10R
HIGHFILL       PTCLDY    64  63  96 CALM      30.09R
$$

ARZ004-005-016-290900-
NORTH CENTRAL ARKANSAS

CITY           SKY/WX    TMP DP  RH WIND       PRES   REMARKS
BATESVILLE     CLEAR     66  63  88 CALM      30.05R
FLIPPIN        PTCLDY   N/A N/A N/A CALM      30.04R
MTN HOME       MOCLDY    68  65  90 CALM      30.06R
$$

ARZ040-041-290900-
WEST CENTRAL ARKANSAS

CITY           SKY/WX    TMP DP  RH WIND       PRES   REMARKS
MENA           PTCLDY    66  64  94 CALM      30.07F
MOUNT IDA      CLOUDY    63  61  93 CALM      30.04F FOG
$$

ARZ009-017-025-026-028-290900-
NORTHEAST ARKANSAS

CITY           SKY/WX    TMP DP  RH WIND       PRES   REMARKS
CORNING          N/A     68  68 100 S6        30.04S FOG
JONESBORO      CLEAR     67  66  97 CALM      30.04S
NEWPORT        CLEAR     69  69 100 CALM      30.06R
WALNUT RIDGE   CLEAR     68  64  88 S3        30.04S
BLYTHEVILLE    CLEAR     70  67  90 SW3       30.05S
$$

ARZ022-023-033-042-044-290900-
CENTRAL ARKANSAS

CITY           SKY/WX    TMP DP  RH WIND       PRES   REMARKS
LITTLE ROCK    PTCLDY    70  66  87 W3        30.05R
N LITTLE ROCK    N/A     70  67  91 CALM      30.03R
JACKSONVILLE   PTCLDY    67  67  99 W2        30.05R
SEARCY         PTCLDY    66  66 100 CALM      30.07R FOG
HOT SPRINGS    MOCLDY    67  65  93 SW3       30.06F
RUSSELLVILLE   PTCLDY    66  66 100 S3        30.05S
CLINTON        FAIR      63  63 100 CALM      30.07S FOG
$$

ARZ036-290900-
EAST ARKANSAS

CITY           SKY/WX    TMP DP  RH WIND       PRES   REMARKS
WEST MEMPHIS   CLEAR     69  68  96 S6        30.04R
$$

ARZ050-053-066-070-073-290900-
SOUTHWEST ARKANSAS

CITY           SKY/WX    TMP DP  RH WIND       PRES   REMARKS
ARKADELPHIA    FOG       64  64 100 CALM      30.05F VSB 1/2
CAMDEN         FOG       64  61  88 CALM      30.04S VSB 1/4
TEXARKANA      PTCLDY    68  67  96 E3        30.05R FOG
EL DORADO      CLOUDY    65  65 100 CALM      30.05R
DE QUEEN       MOCLDY    67  66  97 CALM      30.02F FOG
$$

ARZ056-057-069-290900-
SOUTHEAST ARKANSAS

CITY           SKY/WX    TMP DP  RH WIND       PRES   REMARKS
PINE BLUFF     PTCLDY    68  66  93 CALM      30.04R
STUTTGART      CLEAR     70  64  83 SW5       30.05R
MONTICELLO     CLEAR     68  66  93 CALM      30.04R

$$






USA.gov is the U.S. government's official web portal to all federal, state and local government web resources and services.